Regional Weather Roundup
Issued by NWS

Home | Current Version | Previous Version | Text Only | Print | Product List | Glossary On
Versions: 1 2 3 4 5 6 7 8 9 10 11 12 13 14 15 16 17 18 19 20 21 22 23 24 25 26 27 28 29 30 31 32 33 34 35 36 37 38 39 40 41 42 43 44 45 46 47 48 49 50
000
ASHW40 PHFO 201843
RWRHI

WEATHER ROUNDUP FOR HAWAII
NATIONAL WEATHER SERVICE HONOLULU HI
800 AM HST MON OCT 20 2014

THIS IS AN AUTOMATED REPORT THAT HAS NOT BEEN QUALITY CONTROLLED.

NOTE..."FAIR" INDICATES FEW OR NO CLOUDS BELOW 12,000 FEET WITH NO
SIGNIFICANT WEATHER AND/OR OBSTRUCTIONS TO VISIBILITY.

* - THESE SITES REPORT LIMITED FIELDS

HIZ001>004-201900-
KAUAI-NIIHAU-

CITY           SKY/WX    TMP DP  RH WIND       PRES   REMARKS
LIHUE APT      CLOUDY    80  71  74 E15       30.02R
PORT ALLEN*      N/A     79 N/A N/A E12G18      N/A
POIPU*           N/A     79 N/A N/A NE9G18      N/A
PRINCEVILLE*     N/A     34 N/A N/A MISG        N/A
KOKOLE POINT*  NOT AVBL
MOLOAA DAIRY*  NOT AVBL
WAIMEA HTS*      N/A     79  66  65 E12G18      N/A
PUU OPAE*        N/A     72  63  73 E1G14       N/A
PUU LUA*       NOT AVBL
MAKAHA RIDGE*  NOT AVBL
$$

HIZ005>011-201900-
OAHU-

CITY           SKY/WX    TMP DP  RH WIND       PRES   REMARKS
HONOLULU       CLOUDY    81  72  74 NE7       29.99R
KALAELOA       CLOUDY    68  50  53 E3        30.01R
KANEOHE MCB    CLOUDY    80  71  74 E8G16     30.01R
WHEELER FIELD  PTSUNNY   77  68  73 E2        30.08R
BELLOWS*         N/A    N/A N/A N/A E18         N/A
KAHUKU*          N/A    N/A N/A N/A E14G21      N/A
WHEELER*       NOT AVBL
WAIANAE HARBOR NOT AVBL
DILLINGHAM*      N/A     72  63  73 E3          N/A
KAHUKU TRN*      N/A     72  64  78 E17G29      N/A
KAWAILOA*        N/A     73  68  83 E8G18       N/A
KII*             N/A     81  73  78 E20G26      N/A
MAKUA RANGE*     N/A     79  68  69 E3          N/A
OAHU FOREST NW   N/A     70  70 100 VRB15G30    N/A
SCHOFIELD BRK*   N/A     72  64  78 MISG        N/A
SCHOFIELD S*   NOT AVBL
WAIANAE VLY*     N/A     79  68  69 E6G18       N/A
KUAOKALA*        N/A     79  66  65 CALM        N/A
HONOULIUULI*   NOT AVBL
MOKUOLOE IS*     N/A    N/A N/A N/A MISG        N/A
PALEHUA*         N/A     82  73  74 CALM        N/A
WAIAWA PHB*    NOT AVBL
$$

HIZ012>013-201900-
MOLOKAI-

CITY           SKY/WX    TMP DP  RH WIND       PRES   REMARKS
MOLOKAI AIRPT  CLOUDY    80  72  76 VRB6      30.00R
KALAUPAPA      NOT AVBL
MAKAPULAPAI*     N/A     82  72  69 E20G31      N/A
MOLOKAI 1*       N/A     75  63  64 SE6G18      N/A
PUU ALII*        N/A     61  60  97 SE3G13      N/A
$$

HIZ016-201900-
KAHOOLAWE-

CITY           SKY/WX    TMP DP  RH WIND       PRES   REMARKS
KAHOOLAWE*       N/A     73 N/A N/A E18G28      N/A
HAKIOAWA*      NOT AVBL
HONOKANAIA*      N/A     81  68  64 NE17G40   29.99R
KANELOA*         N/A     77  68  73 NE20G32   29.18S
KEALIALALO*    NOT AVBL
LUA MAKIKA*    NOT AVBL
$$

HIZ014>015-201900-
LANAI-

CITY           SKY/WX    TMP DP  RH WIND       PRES   REMARKS
LANAI CITY     FAIR      76  70  82 NE10      30.05R
LANAI 1*         N/A     75  75 100 NE17G29     N/A
$$

HIZ017>028-201900-
MAUI-

CITY           SKY/WX    TMP DP  RH WIND       PRES   REMARKS
KAHULUI        MOSUNNY   76  66  71 VRB6      29.99R
KAPALUA-W MAUI PTSUNNY   82  72  69 NE14      29.98
HANA AIRPORT   CLOUDY    81  72  74 E9        30.05F
HANA*            N/A     81 N/A N/A E7G13       N/A
HALEAKALA SUMM   N/A     52  41  66 E26G39      N/A
MAALAEA BAY*   NOT AVBL
HALEAKALA*     NOT AVBL
KAUPO GAP*       N/A     73  46  38 S3G15       N/A
KULA 1*          N/A     60  41  50 CALM        N/A
$$

HIZ023>026-201900-
BIG ISLAND OF HAWAII COAST AND LOWER SLOPES-

CITY           SKY/WX    TMP DP  RH WIND       PRES   REMARKS
KAILUA KONA    MOSUNNY   82  73  74 W6        29.96R
HILO           PTSUNNY   76  69  79 SW8       30.03R
HONOKAA*       NOT AVBL
KAWAIHAE MWT*    N/A     79 N/A N/A SE2         N/A
KAWAIHAE*        N/A     82 N/A N/A S1          N/A
SOUTH POINT*     N/A     72 N/A N/A NE16G24     N/A
UPOLU AIRPORT*   N/A    N/A N/A N/A E17G29      N/A
KAMUELA*       PTCLDY    73  63  68 CALM      30.12R
HAKALAU*         N/A     67  43  42 S2G12       N/A
KALOKO-HONOKO*   N/A     81  75  83 N3        29.96R
PALI 2*          N/A     73  -6   4 NE8G14      N/A
KEALAKOMO*       N/A     82  70  65 NE12G17     N/A
KAUPULEHU*       N/A     79  70  73 W10         N/A
KAPAPALA*        N/A     72  66  81 N7          N/A
LOWER KAHUKU*  NOT AVBL
PUHE CS*       NOT AVBL
PUHO CS*         N/A     78  69  74 E1          N/A
PTA KEAMUKU*     N/A     70  63  78 S3G9        N/A
WAIKOLOA*        N/A     81  68  65 W5          N/A
$$

HIZ027>028-201900-
BIG ISLAND OF HAWAII INTERIOR AND SUMMMITS-

CITY           SKY/WX    TMP DP  RH WIND       PRES   REMARKS
BRADSHAW FIELD MOSUNNY   64  52  64 S13G23    30.34S
MK VISITOR CEN NOT AVBL
MAUNA KEA*       N/A     36  27  69 SE8         N/A  WCI  29
MAUNA LOA*       N/A    N/A N/A N/A MISG        N/A
MAUNA LOA 1*   NOT AVBL
PTA KIPUKA*      N/A     64  59  82 S5G12       N/A
PTA RANGE 17*    N/A     63  54  72 E9G18       N/A
PTA WEST*        N/A     68  61  77 S5G30       N/A
NENE CABIN*    NOT AVBL
AHUMOA*          N/A     67  48  51 W1          N/A
PTA PORTABLE*  NOT AVBL
PUU MALI*      NOT AVBL
$$

HIC003-201900-
NORTHWEST ISLANDS-

CITY           SKY/WX    TMP DP  RH WIND       PRES   REMARKS
MIDWAY ISLAND  LGT RAIN  75  73  94 S12       30.00R
MIDWAY NOS*    NOT AVBL
FRENCH FRIGATE NOT AVBL
$$

PHZ110>124-180-201900-
BUOY REPORTS

STATION/POSITION TIME  TEMP    WIND        PRES    WAVE   SWELL
                       AIR SEA DIR/SP/G            HT/PER HT/DIR
                 (UTC) (F)     (DEG/KT/KT) (MB)    (FT/S) (FT/D)
BUOY 51001       NOT AVBL
BUOY 51101       NOT AVBL
BUOY 51100       1800   77 80   60/ 21/ 25 1017.7
BUOY 51003       1800   82 82  130/ 23/ 29 1012.8R   8/13   5
BUOY 51004       1750   80 81   90/ 19/ 23 1015.0R   8/15
BARBERS PT BUOY  NOT AVBL
WAIMEA BAY BUOY  1800      81                N/A     8/13
KAILUA BAY BUOY  1800      82                N/A     9/13   5/350
LANAI BUOY       1800      81                N/A     4/13   2/290
BARBERS PT 2     1800      81                N/A     5/14   3/320
PAUWELA MAUI     1800      81                N/A    10/14
HILO             1800      80                N/A     7/14   5/340
KANEOHE BAY BUOY NOT AVBL
HANALEI KAUAI    1800      83                N/A    10/13   7/340
KAHULUI HARBOR   1800   80 80   30/  4/  6 1015.7R
HONOLULU HARBOR  1800   82      60/  3/  6 1016.3R
KILO NALU        NOT AVBL
HILO HARBOR      1800   77     230/  5/  7 1016.6R
MOKUOLOE         1800      81              1016.7R
NAWILIWILI       1800      82                N/A
WHOTS BUOY       NOT AVBL
BUOY 51028       NOT AVBL
$$

......................KEY........................................
  SKY/WX - SKY CONDITIONS/PRESENT WEATHER
  TMP    - TEMPERATURE IN FAHRENHEIT
  DWPT   - DEWPOINT IN FAHRENHEIT
  RH     - RELATIVE HUMIDITY IN PERCENT
  WIND   - DIRECTION AND SPEED /MPH FOR ISLANDS...KTS FOR BUOYS/
  PRES   - MEAN SEA LEVEL PRESSURE IN INCHES OF HG
  VSB    - VISIBILITY IN MILES
  HX     - HEAT INDEX
  WCI    - WIND CHILL INDEX
  VRB    - VARIABLE WIND DIRECTION
  N/A    - NOT AVAILABLE


USA.gov is the U.S. government's official web portal to all federal, state and local government web resources and services.